Time,TemperatureF,DewpointF,PressureIn,WindDirection,WindDirectionDegrees,WindSpeedMPH,WindSpeedGustMPH,Humidity,HourlyPrecipIn,Conditions,Clouds,dailyrainin,SoftwareType,DateUTC
2013-03-04 00:00:00,25.5,19.0,30.13,SSW,213,1.0,5.0,76,0.00,,,0.00,WeatherCatV1.02B3,2013-03-04 05:00:00,
2013-03-04 00:02:00,25.5,19.0,30.13,WSW,253,1.0,3.0,76,0.00,,,0.00,WeatherCatV1.02B3,2013-03-04 05:02:00,
2013-03-04 00:06:00,25.5,19.0,30.13,West,273,0.0,6.0,76,0.00,,,0.00,WeatherCatV1.02B3,2013-03-04 05:06:00,
2013-03-04 00:07:00,25.5,19.0,30.13,West,273,0.0,0.0,76,0.00,,,0.00,WeatherCatV1.02B3,2013-03-04 05:07:00,
2013-03-04 00:12:00,25.5,19.0,30.13,WSW,244,0.0,3.0,76,0.00,,,0.00,WeatherCatV1.02B3,2013-03-04 05:12:00,
2013-03-04 00:17:00,25.5,19.3,30.13,WSW,255,0.0,3.0,77,0.00,,,0.00,WeatherCatV1.02B3,2013-03-04 05:17:00,
2013-03-04 00:22:00,25.4,19.2,30.13,WNW,291,1.0,4.0,77,0.00,,,0.00,WeatherCatV1.02B3,2013-03-04 05:22:00,
2013-03-04 00:27:00,25.3,19.4,30.13,WNW,298,0.0,4.0,78,0.00,,,0.00,WeatherCatV1.02B3,2013-03-04 05:27:00,
2013-03-04 00:32:00,25.3,19.4,30.13,SW,235,0.0,3.0,78,0.00,,,0.00,WeatherCatV1.02B3,2013-03-04 05:32:00,
2013-03-04 00:37:00,25.3,19.4,30.13,West,275,0.0,4.0,78,0.00,,,0.00,WeatherCatV1.02B3,2013-03-04 05:37:00,
2013-03-04 00:42:00,25.3,19.4,30.13,WSW,256,1.0,3.0,78,0.00,,,0.00,WeatherCatV1.02B3,2013-03-04 05:42:00,
2013-03-04 00:47:00,25.3,19.4,30.14,WSW,249,1.0,5.0,78,0.00,,,0.00,WeatherCatV1.02B3,2013-03-04 05:47:00,
2013-03-04 00:52:00,25.3,19.4,30.13,SW,229,2.0,4.0,78,0.00,,,0.00,WeatherCatV1.02B3,2013-03-04 05:52:00,
2013-03-04 00:57:00,25.3,19.4,30.13,West,272,2.0,5.0,78,0.00,,,0.00,WeatherCatV1.02B3,2013-03-04 05:57:00,
2013-03-04 01:02:00,25.3,19.4,30.13,WSW,258,2.0,2.0,78,0.00,,,0.00,WeatherCatV1.02B3,2013-03-04 06:02:00,
2013-03-04 01:07:00,25.4,19.5,30.13,West,263,1.0,3.0,78,0.00,,,0.00,WeatherCatV1.02B3,2013-03-04 06:07:00,
2013-03-04 01:12:00,25.5,19.6,30.13,WNW,290,0.0,3.0,78,0.00,,,0.00,WeatherCatV1.02B3,2013-03-04 06:12:00,
2013-03-04 01:17:00,25.6,19.7,30.13,WSW,249,0.0,4.0,78,0.00,,,0.00,WeatherCatV1.02B3,2013-03-04 06:17:00,
2013-03-04 01:22:00,25.6,19.7,30.13,West,268,0.0,5.0,78,0.00,,,0.00,WeatherCatV1.02B3,2013-03-04 06:22:00,
2013-03-04 01:27:00,25.7,19.8,30.13,WSW,257,0.0,2.0,78,0.00,,,0.00,WeatherCatV1.02B3,2013-03-04 06:27:00,
2013-03-04 01:32:00,25.7,20.1,30.13,WSW,250,4.0,4.0,79,0.00,,,0.00,WeatherCatV1.02B3,2013-03-04 06:32:00,
2013-03-04 01:37:00,25.9,20.3,30.13,West,259,5.0,9.0,79,0.00,,,0.00,WeatherCatV1.02B3,2013-03-04 06:37:00,
2013-03-04 01:42:00,26.3,20.4,30.14,West,267,7.0,7.0,78,0.00,,,0.00,WeatherCatV1.02B3,2013-03-04 06:42:00,
2013-03-04 01:47:00,26.4,20.2,30.14,WNW,296,1.0,7.0,77,0.00,,,0.00,WeatherCatV1.02B3,2013-03-04 06:47:00,
2013-03-04 01:52:00,26.4,20.2,30.14,WNW,291,0.0,5.0,77,0.00,,,0.00,WeatherCatV1.02B3,2013-03-04 06:52:00,
2013-03-04 01:57:00,26.3,20.4,30.14,West,263,2.0,4.0,78,0.00,,,0.00,WeatherCatV1.02B3,2013-03-04 06:57:00,
2013-03-04 02:02:00,26.3,20.4,30.14,West,260,2.0,4.0,78,0.00,,,0.00,WeatherCatV1.02B3,2013-03-04 07:02:00,
2013-03-04 02:07:00,26.3,20.4,30.14,WNW,289,0.0,9.0,78,0.00,,,0.00,WeatherCatV1.02B3,2013-03-04 07:07:00,
2013-03-04 02:12:00,26.5,20.3,30.14,WNW,286,1.0,5.0,77,0.00,,,0.00,WeatherCatV1.02B3,2013-03-04 07:12:00,
2013-03-04 02:17:00,26.6,20.1,30.14,West,259,0.0,3.0,76,0.00,,,0.00,WeatherCatV1.02B3,2013-03-04 07:17:00,
2013-03-04 02:22:00,26.6,20.1,30.14,NW,306,0.0,2.0,76,0.00,,,0.00,WeatherCatV1.02B3,2013-03-04 07:22:00,
2013-03-04 02:27:00,26.7,20.2,30.14,WNW,282,0.0,1.0,76,0.00,,,0.00,WeatherCatV1.02B3,2013-03-04 07:27:00,
2013-03-04 02:32:00,26.7,20.5,30.14,WNW,290,0.0,5.0,77,0.00,,,0.00,WeatherCatV1.02B3,2013-03-04 07:32:00,
2013-03-04 02:37:00,26.7,20.2,30.14,WSW,257,2.0,4.0,76,0.00,,,0.00,WeatherCatV1.02B3,2013-03-04 07:37:00,
2013-03-04 02:42:00,26.8,20.3,30.14,WNW,302,4.0,4.0,76,0.00,,,0.00,WeatherCatV1.02B3,2013-03-04 07:42:00,
2013-03-04 02:47:00,26.8,20.3,30.14,WNW,292,6.0,7.0,76,0.00,,,0.00,WeatherCatV1.02B3,2013-03-04 07:47:00,
2013-03-04 02:52:00,26.7,20.2,30.14,WNW,292,1.0,10.0,76,0.00,,,0.00,WeatherCatV1.02B3,2013-03-04 07:52:00,
2013-03-04 02:57:00,26.7,20.2,30.14,West,276,3.0,4.0,76,0.00,,,0.00,WeatherCatV1.02B3,2013-03-04 07:57:00,
2013-03-04 03:02:00,26.8,20.0,30.15,WNW,286,4.0,10.0,75,0.00,,,0.00,WeatherCatV1.02B3,2013-03-04 08:02:00,
2013-03-04 03:07:00,26.8,20.0,30.15,SW,236,6.0,6.0,75,0.00,,,0.00,WeatherCatV1.02B3,2013-03-04 08:07:00,
2013-03-04 03:12:00,26.8,20.3,30.15,WNW,285,2.0,7.0,76,0.00,,,0.00,WeatherCatV1.02B3,2013-03-04 08:12:00,
2013-03-04 03:17:00,26.8,20.3,30.15,West,267,5.0,5.0,76,0.00,,,0.00,WeatherCatV1.02B3,2013-03-04 08:17:00,
2013-03-04 03:22:00,26.8,20.3,30.15,West,263,2.0,5.0,76,0.00,,,0.00,WeatherCatV1.02B3,2013-03-04 08:22:00,
2013-03-04 03:27:00,26.8,20.3,30.15,WSW,250,3.0,10.0,76,0.00,,,0.00,WeatherCatV1.02B3,2013-03-04 08:27:00,
2013-03-04 03:32:00,26.8,20.3,30.15,West,269,3.0,9.0,76,0.00,,,0.00,WeatherCatV1.02B3,2013-03-04 08:32:00,
2013-03-04 03:37:00,26.8,20.6,30.15,WSW,253,1.0,5.0,77,0.00,,,0.00,WeatherCatV1.02B3,2013-03-04 08:37:00,
2013-03-04 03:42:00,26.8,20.6,30.15,WSW,253,4.0,5.0,77,0.00,,,0.00,WeatherCatV1.02B3,2013-03-04 08:42:00,
2013-03-04 03:47:00,26.8,20.3,30.15,SSW,209,0.0,2.0,76,0.00,,,0.00,WeatherCatV1.02B3,2013-03-04 08:47:00,
2013-03-04 03:52:00,26.8,20.6,30.15,WSW,238,2.0,3.0,77,0.00,,,0.00,WeatherCatV1.02B3,2013-03-04 08:52:00,
2013-03-04 03:57:00,26.8,20.6,30.15,WSW,243,2.0,5.0,77,0.00,,,0.00,WeatherCatV1.02B3,2013-03-04 08:57:00,
2013-03-04 04:02:00,26.7,20.5,30.15,WSW,243,0.0,3.0,77,0.00,,,0.00,WeatherCatV1.02B3,2013-03-04 09:02:00,
2013-03-04 04:07:00,26.7,20.8,30.15,SSW,194,6.0,7.0,78,0.00,,,0.00,WeatherCatV1.02B3,2013-03-04 09:07:00,
2013-03-04 04:12:00,26.7,20.8,30.15,WSW,244,2.0,7.0,78,0.00,,,0.00,WeatherCatV1.02B3,2013-03-04 09:12:00,
2013-03-04 04:17:00,26.6,20.7,30.15,WNW,290,3.0,6.0,78,0.00,,,0.00,WeatherCatV1.02B3,2013-03-04 09:17:00,
2013-03-04 04:22:00,26.6,20.7,30.15,West,280,4.0,6.0,78,0.00,,,0.00,WeatherCatV1.02B3,2013-03-04 09:22:00,
2013-03-04 04:27:00,26.5,20.6,30.15,West,261,2.0,6.0,78,0.00,,,0.00,WeatherCatV1.02B3,2013-03-04 09:27:00,
2013-03-04 04:32:00,26.5,20.9,30.16,West,275,3.0,4.0,79,0.00,,,0.00,WeatherCatV1.02B3,2013-03-04 09:32:00,
2013-03-04 04:37:00,26.5,20.9,30.16,West,273,3.0,6.0,79,0.00,,,0.00,WeatherCatV1.02B3,2013-03-04 09:37:00,
2013-03-04 04:42:00,26.5,21.2,30.16,SW,229,2.0,6.0,80,0.00,,,0.00,WeatherCatV1.02B3,2013-03-04 09:42:00,
2013-03-04 04:47:00,26.4,21.1,30.16,West,277,2.0,7.0,80,0.00,,,0.00,WeatherCatV1.02B3,2013-03-04 09:47:00,
2013-03-04 04:52:00,26.3,21.0,30.16,West,261,2.0,8.0,80,0.00,,,0.00,WeatherCatV1.02B3,2013-03-04 09:52:00,
2013-03-04 04:57:00,26.2,20.9,30.16,West,270,5.0,7.0,80,0.00,,,0.00,WeatherCatV1.02B3,2013-03-04 09:57:00,
2013-03-04 05:02:00,26.3,21.0,30.16,West,277,3.0,5.0,80,0.00,,,0.00,WeatherCatV1.02B3,2013-03-04 10:02:00,
2013-03-04 05:07:00,26.3,20.7,30.16,WNW,283,1.0,5.0,79,0.00,,,0.00,WeatherCatV1.02B3,2013-03-04 10:07:00,
2013-03-04 05:12:00,26.3,20.7,30.16,WSW,240,1.0,3.0,79,0.00,,,0.00,WeatherCatV1.02B3,2013-03-04 10:12:00,
2013-03-04 05:17:00,26.3,20.7,30.16,WSW,246,0.0,5.0,79,0.00,,,0.00,WeatherCatV1.02B3,2013-03-04 10:17:00,
2013-03-04 05:22:00,26.3,20.4,30.16,West,277,0.0,7.0,78,0.00,,,0.00,WeatherCatV1.02B3,2013-03-04 10:22:00,
2013-03-04 05:27:00,26.2,20.3,30.16,West,264,3.0,7.0,78,0.00,,,0.00,WeatherCatV1.02B3,2013-03-04 10:27:00,
2013-03-04 05:32:00,26.2,20.6,30.16,West,277,5.0,5.0,79,0.00,,,0.00,WeatherCatV1.02B3,2013-03-04 10:32:00,
2013-03-04 05:38:00,26.2,20.6,30.17,West,259,0.0,5.0,79,0.00,,,0.00,WeatherCatV1.02B3,2013-03-04 10:38:00,
2013-03-04 05:43:00,26.1,20.5,30.16,West,280,0.0,4.0,79,0.00,,,0.00,WeatherCatV1.02B3,2013-03-04 10:43:00,
2013-03-04 05:48:00,25.9,20.3,30.17,West,271,2.0,4.0,79,0.00,,,0.00,WeatherCatV1.02B3,2013-03-04 10:48:00,
2013-03-04 05:53:00,25.8,20.2,30.17,WSW,246,0.0,2.0,79,0.00,,,0.00,WeatherCatV1.02B3,2013-03-04 10:53:00,
2013-03-04 05:58:00,25.6,20.0,30.17,WSW,240,0.0,0.0,79,0.00,,,0.00,WeatherCatV1.02B3,2013-03-04 10:58:00,
2013-03-04 06:03:00,25.6,20.3,30.18,West,261,0.0,4.0,80,0.00,,,0.00,WeatherCatV1.02B3,2013-03-04 11:03:00,
2013-03-04 06:08:00,25.5,20.2,30.17,WSW,254,0.0,0.0,80,0.00,,,0.00,WeatherCatV1.02B3,2013-03-04 11:08:00,
2013-03-04 06:13:00,25.4,20.1,30.17,WSW,254,0.0,0.0,80,0.00,,,0.00,WeatherCatV1.02B3,2013-03-04 11:13:00,
2013-03-04 06:18:00,25.2,19.9,30.18,West,259,2.0,2.0,80,0.00,,,0.00,WeatherCatV1.02B3,2013-03-04 11:18:00,
2013-03-04 06:23:00,25.1,19.8,30.18,WSW,245,1.0,2.0,80,0.00,,,0.00,WeatherCatV1.02B3,2013-03-04 11:23:00,
2013-03-04 06:28:00,25.0,20.0,30.18,WSW,246,0.0,0.0,81,0.00,,,0.00,WeatherCatV1.02B3,2013-03-04 11:28:00,
2013-03-04 06:34:00,24.8,19.8,30.18,West,270,0.0,0.0,81,0.00,,,0.00,WeatherCatV1.02B3,2013-03-04 11:34:00,
2013-03-04 06:39:00,24.7,19.7,30.18,West,270,0.0,0.0,81,0.00,,,0.00,WeatherCatV1.02B3,2013-03-04 11:39:00,
2013-03-04 06:44:00,24.5,19.5,30.18,West,269,0.0,0.0,81,0.00,,,0.00,WeatherCatV1.02B3,2013-03-04 11:44:00,
2013-03-04 06:49:00,24.4,19.7,30.19,West,269,0.0,2.0,82,0.00,,,0.00,WeatherCatV1.02B3,2013-03-04 11:49:00,
2013-03-04 06:54:00,24.4,19.7,30.19,West,270,0.0,0.0,82,0.00,,,0.00,WeatherCatV1.02B3,2013-03-04 11:54:00,
2013-03-04 06:59:00,24.4,19.7,30.19,WSW,252,2.0,2.0,82,0.00,,,0.00,WeatherCatV1.02B3,2013-03-04 11:59:00,
2013-03-04 07:04:00,24.5,19.8,30.19,WSW,256,1.0,4.0,82,0.00,,,0.00,WeatherCatV1.02B3,2013-03-04 12:04:00,
2013-03-04 07:09:00,24.5,20.1,30.19,West,267,1.0,1.0,83,0.00,,,0.00,WeatherCatV1.02B3,2013-03-04 12:09:00,
2013-03-04 07:14:00,24.6,20.2,30.19,West,264,0.0,3.0,83,0.00,,,0.00,WeatherCatV1.02B3,2013-03-04 12:14:00,
2013-03-04 07:19:00,24.7,20.3,30.20,SW,236,0.0,3.0,83,0.00,,,0.00,WeatherCatV1.02B3,2013-03-04 12:19:00,
2013-03-04 07:24:00,24.8,20.4,30.20,WSW,256,0.0,2.0,83,0.00,,,0.00,WeatherCatV1.02B3,2013-03-04 12:24:00,
2013-03-04 07:29:00,24.8,20.4,30.20,West,267,1.0,2.0,83,0.00,,,0.00,WeatherCatV1.02B3,2013-03-04 12:29:00,
2013-03-04 07:34:00,25.1,20.7,30.20,SW,232,3.0,5.0,83,0.00,,,0.00,WeatherCatV1.02B3,2013-03-04 12:34:00,
2013-03-04 07:39:00,25.2,20.8,30.21,West,280,1.0,1.0,83,0.00,,,0.00,WeatherCatV1.02B3,2013-03-04 12:39:00,
2013-03-04 07:44:00,25.4,21.0,30.21,SW,231,4.0,5.0,83,0.00,,,0.00,WeatherCatV1.02B3,2013-03-04 12:44:00,
2013-03-04 07:49:00,25.6,20.9,30.21,SW,219,2.0,5.0,82,0.00,,,0.00,WeatherCatV1.02B3,2013-03-04 12:49:00,
2013-03-04 07:55:00,25.8,21.1,30.21,WSW,240,3.0,6.0,82,0.00,,,0.00,WeatherCatV1.02B3,2013-03-04 12:55:00,
2013-03-04 08:00:00,26.0,21.3,30.21,West,277,2.0,3.0,82,0.00,,,0.00,WeatherCatV1.02B3,2013-03-04 13:00:00,
2013-03-04 08:05:00,26.1,21.1,30.21,WSW,249,3.0,7.0,81,0.00,,,0.00,WeatherCatV1.02B3,2013-03-04 13:05:00,
2013-03-04 08:10:00,26.3,21.3,30.21,WSW,254,3.0,5.0,81,0.00,,,0.00,WeatherCatV1.02B3,2013-03-04 13:10:00,
2013-03-04 08:15:00,26.4,21.4,30.21,West,261,4.0,6.0,81,0.00,,,0.00,WeatherCatV1.02B3,2013-03-04 13:15:00,
2013-03-04 08:20:00,26.5,21.2,30.21,SW,223,2.0,5.0,80,0.00,,,0.00,WeatherCatV1.02B3,2013-03-04 13:20:00,
2013-03-04 08:25:00,26.5,21.2,30.21,WSW,250,2.0,4.0,80,0.00,,,0.00,WeatherCatV1.02B3,2013-03-04 13:25:00,
2013-03-04 08:30:00,26.6,21.0,30.21,West,262,4.0,11.0,79,0.00,,,0.00,WeatherCatV1.02B3,2013-03-04 13:30:00,
2013-03-04 08:35:00,26.8,21.2,30.21,West,265,0.0,3.0,79,0.00,,,0.00,WeatherCatV1.02B3,2013-03-04 13:35:00,
2013-03-04 08:40:00,26.8,20.9,30.21,WSW,245,4.0,6.0,78,0.00,,,0.00,WeatherCatV1.02B3,2013-03-04 13:40:00,
2013-03-04 08:45:00,26.9,21.0,30.21,SW,225,2.0,5.0,78,0.00,,,0.00,WeatherCatV1.02B3,2013-03-04 13:45:00,
2013-03-04 08:50:00,26.9,21.0,30.21,West,263,2.0,3.0,78,0.00,,,0.00,WeatherCatV1.02B3,2013-03-04 13:50:00,
2013-03-04 08:55:00,27.0,21.1,30.21,WSW,248,3.0,4.0,78,0.00,,,0.00,WeatherCatV1.02B3,2013-03-04 13:55:00,
2013-03-04 09:00:00,27.1,21.5,30.21,West,263,2.0,6.0,79,0.00,,,0.00,WeatherCatV1.02B3,2013-03-04 14:00:00,
2013-03-04 09:05:00,27.2,21.6,30.21,West,265,2.0,10.0,79,0.00,,,0.00,WeatherCatV1.02B3,2013-03-04 14:05:00,
2013-03-04 09:10:00,27.1,21.5,30.21,West,263,2.0,4.0,79,0.00,,,0.00,WeatherCatV1.02B3,2013-03-04 14:10:00,
2013-03-04 09:15:00,27.5,21.9,30.21,West,263,4.0,8.0,79,0.00,,,0.00,WeatherCatV1.02B3,2013-03-04 14:15:00,
2013-03-04 09:20:00,27.7,21.8,30.21,West,268,2.0,5.0,78,0.00,,,0.00,WeatherCatV1.02B3,2013-03-04 14:20:00,
2013-03-04 09:25:00,27.8,21.5,30.21,WSW,254,2.0,7.0,77,0.00,,,0.00,WeatherCatV1.02B3,2013-03-04 14:25:00,
2013-03-04 09:30:00,27.8,21.2,30.21,West,260,5.0,6.0,76,0.00,,,0.00,WeatherCatV1.02B3,2013-03-04 14:30:00,
2013-03-04 09:35:00,27.6,21.0,30.21,WSW,241,1.0,5.0,76,0.00,,,0.00,WeatherCatV1.02B3,2013-03-04 14:35:00,
2013-03-04 09:40:00,27.7,21.1,30.22,WNW,293,4.0,4.0,76,0.00,,,0.00,WeatherCatV1.02B3,2013-03-04 14:40:00,
2013-03-04 09:45:00,27.7,21.1,30.22,WSW,245,3.0,8.0,76,0.00,,,0.00,WeatherCatV1.02B3,2013-03-04 14:45:00,
2013-03-04 09:50:00,27.6,21.0,30.22,WNW,288,1.0,8.0,76,0.00,,,0.00,WeatherCatV1.02B3,2013-03-04 14:50:00,
2013-03-04 09:55:00,27.7,21.4,30.22,SW,226,4.0,7.0,77,0.00,,,0.00,WeatherCatV1.02B3,2013-03-04 14:55:00,
2013-03-04 10:00:00,27.7,21.4,30.22,NW,308,3.0,7.0,77,0.00,,,0.00,WeatherCatV1.02B3,2013-03-04 15:00:00,
2013-03-04 10:05:00,27.7,21.1,30.22,West,275,1.0,5.0,76,0.00,,,0.00,WeatherCatV1.02B3,2013-03-04 15:05:00,
2013-03-04 10:10:00,27.6,21.0,30.22,West,259,2.0,7.0,76,0.00,,,0.00,WeatherCatV1.02B3,2013-03-04 15:10:00,
2013-03-04 10:15:00,27.8,21.2,30.22,SW,234,0.0,2.0,76,0.00,,,0.00,WeatherCatV1.02B3,2013-03-04 15:15:00,
2013-03-04 10:20:00,27.8,21.2,30.22,West,270,5.0,6.0,76,0.00,,,0.00,WeatherCatV1.02B3,2013-03-04 15:20:00,
2013-03-04 10:25:00,27.6,21.0,30.22,West,281,2.0,5.0,76,0.00,,,0.00,WeatherCatV1.02B3,2013-03-04 15:25:00,
2013-03-04 10:30:00,27.7,21.1,30.22,WSW,237,4.0,10.0,76,0.00,,,0.00,WeatherCatV1.02B3,2013-03-04 15:30:00,
2013-03-04 10:35:00,27.8,21.5,30.22,West,267,1.0,6.0,77,0.00,,,0.00,WeatherCatV1.02B3,2013-03-04 15:35:00,
2013-03-04 10:40:00,27.8,21.2,30.22,West,270,3.0,5.0,76,0.00,,,0.00,WeatherCatV1.02B3,2013-03-04 15:40:00,
2013-03-04 10:45:00,27.7,21.1,30.22,WNW,290,3.0,9.0,76,0.00,,,0.00,WeatherCatV1.02B3,2013-03-04 15:45:00,
2013-03-04 10:50:00,27.8,20.9,30.22,SW,217,3.0,10.0,75,0.00,,,0.00,WeatherCatV1.02B3,2013-03-04 15:50:00,
2013-03-04 10:55:00,27.9,20.7,30.22,SW,236,4.0,10.0,74,0.00,,,0.00,WeatherCatV1.02B3,2013-03-04 15:55:00,
2013-03-04 11:00:00,28.1,20.9,30.22,WSW,251,2.0,7.0,74,0.00,,,0.00,WeatherCatV1.02B3,2013-03-04 16:00:00,
2013-03-04 11:05:00,28.2,21.3,30.22,WSW,248,7.0,7.0,75,0.00,,,0.00,WeatherCatV1.02B3,2013-03-04 16:05:00,
2013-03-04 11:10:00,28.1,21.2,30.22,WSW,256,2.0,5.0,75,0.00,,,0.00,WeatherCatV1.02B3,2013-03-04 16:10:00,
2013-03-04 11:15:00,28.1,21.5,30.22,WNW,286,0.0,7.0,76,0.00,,,0.00,WeatherCatV1.02B3,2013-03-04 16:15:00,
2013-03-04 11:20:00,28.3,21.4,30.23,WSW,254,3.0,4.0,75,0.00,,,0.00,WeatherCatV1.02B3,2013-03-04 16:20:00,
2013-03-04 11:25:00,28.2,21.3,30.22,WSW,237,2.0,4.0,75,0.00,,,0.00,WeatherCatV1.02B3,2013-03-04 16:25:00,
2013-03-04 11:30:00,28.6,21.7,30.22,WNW,284,6.0,6.0,75,0.00,,,0.00,WeatherCatV1.02B3,2013-03-04 16:30:00,
2013-03-04 11:35:00,29.2,22.3,30.22,WSW,248,5.0,6.0,75,0.00,,,0.00,WeatherCatV1.02B3,2013-03-04 16:35:00,
2013-03-04 11:40:00,29.1,22.2,30.22,WSW,251,3.0,7.0,75,0.00,,,0.00,WeatherCatV1.02B3,2013-03-04 16:40:00,
2013-03-04 11:45:00,29.1,21.9,30.22,WSW,249,4.0,10.0,74,0.00,,,0.00,WeatherCatV1.02B3,2013-03-04 16:45:00,
2013-03-04 11:50:00,28.9,21.7,30.22,SSW,209,6.0,7.0,74,0.00,,,0.00,WeatherCatV1.02B3,2013-03-04 16:50:00,
2013-03-04 11:55:00,28.6,21.4,30.23,WSW,241,3.0,10.0,74,0.00,,,0.00,WeatherCatV1.02B3,2013-03-04 16:55:00,
2013-03-04 12:00:00,28.7,21.8,30.22,WSW,248,4.0,9.0,75,0.00,,,0.00,WeatherCatV1.02B3,2013-03-04 17:00:00,
2013-03-04 12:05:00,28.8,21.6,30.22,West,259,6.0,9.0,74,0.00,,,0.00,WeatherCatV1.02B3,2013-03-04 17:05:00,
2013-03-04 12:10:00,29.5,21.9,30.23,West,273,5.0,10.0,73,0.00,,,0.00,WeatherCatV1.02B3,2013-03-04 17:10:00,
2013-03-04 12:15:00,29.5,21.6,30.22,WSW,244,4.0,7.0,72,0.00,,,0.00,WeatherCatV1.02B3,2013-03-04 17:15:00,
2013-03-04 12:20:00,29.2,21.3,30.22,WNW,298,6.0,9.0,72,0.00,,,0.00,WeatherCatV1.02B3,2013-03-04 17:20:00,
2013-03-04 12:25:00,29.5,21.9,30.22,SW,227,4.0,6.0,73,0.00,,,0.00,WeatherCatV1.02B3,2013-03-04 17:25:00,
2013-03-04 12:30:00,29.1,21.2,30.22,WSW,242,4.0,10.0,72,0.00,,,0.00,WeatherCatV1.02B3,2013-03-04 17:30:00,
2013-03-04 12:35:00,29.3,21.7,30.22,West,277,2.0,11.0,73,0.00,,,0.00,WeatherCatV1.02B3,2013-03-04 17:35:00,
2013-03-04 12:40:00,29.2,21.6,30.22,WNW,292,2.0,10.0,73,0.00,,,0.00,WeatherCatV1.02B3,2013-03-04 17:40:00,
2013-03-04 12:45:00,29.3,22.1,30.22,WSW,242,7.0,9.0,74,0.00,,,0.00,WeatherCatV1.02B3,2013-03-04 17:45:00,
2013-03-04 12:50:00,29.3,22.1,30.22,WSW,240,5.0,7.0,74,0.00,,,0.00,WeatherCatV1.02B3,2013-03-04 17:50:00,
2013-03-04 12:55:00,29.5,22.3,30.22,West,265,4.0,7.0,74,0.00,,,0.00,WeatherCatV1.02B3,2013-03-04 17:55:00,
2013-03-04 13:00:00,30.4,23.8,30.21,West,279,2.0,9.0,76,0.00,,,0.00,WeatherCatV1.02B3,2013-03-04 18:00:00,
2013-03-04 13:05:00,30.0,22.7,30.21,WNW,288,4.0,10.0,74,0.00,,,0.00,WeatherCatV1.02B3,2013-03-04 18:05:00,
2013-03-04 13:10:00,30.4,22.8,30.21,West,266,4.0,11.0,73,0.00,,,0.00,WeatherCatV1.02B3,2013-03-04 18:10:00,
2013-03-04 13:15:00,29.6,21.7,30.21,WSW,255,7.0,10.0,72,0.00,,,0.00,WeatherCatV1.02B3,2013-03-04 18:15:00,
2013-03-04 13:20:00,29.4,21.8,30.21,WSW,254,5.0,6.0,73,0.00,,,0.00,WeatherCatV1.02B3,2013-03-04 18:20:00,
2013-03-04 13:25:00,30.0,22.1,30.21,SSW,209,3.0,7.0,72,0.00,,,0.00,WeatherCatV1.02B3,2013-03-04 18:25:00,
2013-03-04 13:30:00,29.8,21.9,30.21,SW,219,9.0,14.0,72,0.00,,,0.00,WeatherCatV1.02B3,2013-03-04 18:30:00,
2013-03-04 13:34:00,30.2,22.3,30.21,WSW,241,4.0,9.0,72,0.00,,,0.01,WeatherCatV1.02B3,2013-03-04 18:34:00,
2013-03-04 13:39:00,30.1,21.9,30.22,WNW,284,3.0,12.0,71,0.00,,,0.01,WeatherCatV1.02B3,2013-03-04 18:39:00,
2013-03-04 13:44:00,30.0,21.4,30.21,WSW,254,4.0,11.0,70,0.00,,,0.01,WeatherCatV1.02B3,2013-03-04 18:44:00,
2013-03-04 13:49:00,29.8,21.9,30.21,West,269,4.0,5.0,72,0.00,,,0.01,WeatherCatV1.02B3,2013-03-04 18:49:00,
2013-03-04 13:54:00,30.3,22.4,30.21,SSW,211,6.0,14.0,72,0.00,,,0.01,WeatherCatV1.02B3,2013-03-04 18:54:00,
2013-03-04 13:59:00,29.7,21.8,30.21,SW,214,3.0,16.0,72,0.00,,,0.01,WeatherCatV1.02B3,2013-03-04 18:59:00,
2013-03-04 14:04:00,30.1,22.8,30.21,WSW,254,4.0,7.0,74,0.00,,,0.01,WeatherCatV1.02B3,2013-03-04 19:04:00,
2013-03-04 14:09:00,30.2,22.9,30.21,SW,222,3.0,8.0,74,0.00,,,0.01,WeatherCatV1.02B3,2013-03-04 19:09:00,
2013-03-04 14:14:00,29.5,21.9,30.20,SW,219,3.0,5.0,73,0.00,,,0.01,WeatherCatV1.02B3,2013-03-04 19:14:00,
2013-03-04 14:19:00,29.8,22.5,30.20,West,273,5.0,10.0,74,0.00,,,0.01,WeatherCatV1.02B3,2013-03-04 19:19:00,
2013-03-04 14:24:00,29.8,22.5,30.20,WSW,240,6.0,10.0,74,0.00,,,0.01,WeatherCatV1.02B3,2013-03-04 19:24:00,
2013-03-04 14:29:00,29.7,22.1,30.20,SW,221,2.0,7.0,73,0.00,,,0.01,WeatherCatV1.02B3,2013-03-04 19:29:00,
2013-03-04 14:34:00,29.4,22.2,30.20,West,267,4.0,10.0,74,0.00,,,0.01,WeatherCatV1.02B3,2013-03-04 19:34:00,
2013-03-04 14:39:00,29.2,22.0,30.20,WSW,245,3.0,7.0,74,0.00,,,0.01,WeatherCatV1.02B3,2013-03-04 19:39:00,
2013-03-04 14:44:00,29.3,22.7,30.20,West,266,6.0,6.0,76,0.00,,,0.01,WeatherCatV1.02B3,2013-03-04 19:44:00,
2013-03-04 14:49:00,29.8,22.9,30.20,WSW,256,3.0,9.0,75,0.00,,,0.01,WeatherCatV1.02B3,2013-03-04 19:49:00,
2013-03-04 14:54:00,29.6,22.3,30.20,WNW,300,2.0,6.0,74,0.00,,,0.01,WeatherCatV1.02B3,2013-03-04 19:54:00,
2013-03-04 14:59:00,29.6,22.3,30.20,WNW,287,2.0,5.0,74,0.00,,,0.01,WeatherCatV1.02B3,2013-03-04 19:59:00,
2013-03-04 15:04:00,29.7,22.8,30.20,West,269,2.0,6.0,75,0.00,,,0.01,WeatherCatV1.02B3,2013-03-04 20:04:00,
2013-03-04 15:09:00,29.7,22.4,30.20,WSW,252,2.0,7.0,74,0.00,,,0.01,WeatherCatV1.02B3,2013-03-04 20:09:00,
2013-03-04 15:14:00,30.1,23.2,30.20,WSW,240,5.0,10.0,75,0.00,,,0.01,WeatherCatV1.02B3,2013-03-04 20:14:00,
2013-03-04 15:19:00,29.9,22.6,30.20,West,263,3.0,5.0,74,0.00,,,0.01,WeatherCatV1.02B3,2013-03-04 20:19:00,
2013-03-04 15:24:00,30.0,22.7,30.20,WNW,293,3.0,10.0,74,0.00,,,0.01,WeatherCatV1.02B3,2013-03-04 20:24:00,
2013-03-04 15:29:00,30.2,22.9,30.20,SW,236,3.0,9.0,74,0.00,,,0.01,WeatherCatV1.02B3,2013-03-04 20:29:00,
2013-03-04 15:34:00,29.8,22.5,30.20,West,281,2.0,5.0,74,0.00,,,0.01,WeatherCatV1.02B3,2013-03-04 20:34:00,
2013-03-04 15:39:00,30.0,22.7,30.20,WSW,252,0.0,9.0,74,0.00,,,0.01,WeatherCatV1.02B3,2013-03-04 20:39:00,
2013-03-04 15:44:00,30.0,22.7,30.20,SW,227,4.0,5.0,74,0.00,,,0.01,WeatherCatV1.02B3,2013-03-04 20:44:00,
2013-03-04 15:49:00,29.8,22.5,30.20,WSW,248,6.0,11.0,74,0.00,,,0.01,WeatherCatV1.02B3,2013-03-04 20:49:00,
2013-03-04 15:54:00,29.8,22.9,30.20,West,271,3.0,6.0,75,0.00,,,0.01,WeatherCatV1.02B3,2013-03-04 20:54:00,
2013-03-04 15:59:00,29.9,22.6,30.20,WSW,239,3.0,9.0,74,0.00,,,0.01,WeatherCatV1.02B3,2013-03-04 20:59:00,
2013-03-04 16:04:00,29.9,22.6,30.20,West,260,4.0,6.0,74,0.00,,,0.01,WeatherCatV1.02B3,2013-03-04 21:04:00,
2013-03-04 16:09:00,30.3,23.3,30.20,WNW,290,3.0,4.0,75,0.00,,,0.01,WeatherCatV1.02B3,2013-03-04 21:09:00,
2013-03-04 16:14:00,30.2,22.9,30.20,WSW,256,3.0,6.0,74,0.00,,,0.01,WeatherCatV1.02B3,2013-03-04 21:14:00,
2013-03-04 16:19:00,30.1,22.8,30.20,WSW,254,2.0,4.0,74,0.00,,,0.01,WeatherCatV1.02B3,2013-03-04 21:19:00,
2013-03-04 16:24:00,30.0,22.7,30.20,West,271,4.0,6.0,74,0.00,,,0.01,WeatherCatV1.02B3,2013-03-04 21:24:00,
2013-03-04 16:29:00,29.7,22.4,30.20,West,261,4.0,5.0,74,0.00,,,0.01,WeatherCatV1.02B3,2013-03-04 21:29:00,
2013-03-04 16:34:00,29.9,23.0,30.20,West,259,2.0,7.0,75,0.00,,,0.01,WeatherCatV1.02B3,2013-03-04 21:34:00,
2013-03-04 16:39:00,29.9,22.6,30.20,West,260,2.0,5.0,74,0.00,,,0.01,WeatherCatV1.02B3,2013-03-04 21:39:00,
2013-03-04 16:44:00,30.0,22.7,30.20,SW,236,4.0,5.0,74,0.00,,,0.01,WeatherCatV1.02B3,2013-03-04 21:44:00,
2013-03-04 16:49:00,29.9,22.6,30.20,NW,313,0.0,5.0,74,0.00,,,0.01,WeatherCatV1.02B3,2013-03-04 21:49:00,
2013-03-04 16:54:00,30.1,22.8,30.20,WNW,284,3.0,4.0,74,0.00,,,0.01,WeatherCatV1.02B3,2013-03-04 21:54:00,
2013-03-04 16:59:00,30.0,22.4,30.20,WSW,246,2.0,5.0,73,0.00,,,0.01,WeatherCatV1.02B3,2013-03-04 21:59:00,
2013-03-04 17:04:00,29.8,22.5,30.20,WSW,248,3.0,6.0,74,0.00,,,0.01,WeatherCatV1.02B3,2013-03-04 22:04:00,
2013-03-04 17:09:00,29.8,22.5,30.20,WSW,250,0.0,0.0,74,0.00,,,0.01,WeatherCatV1.02B3,2013-03-04 22:09:00,
2013-03-04 17:14:00,30.0,23.1,30.20,WSW,242,3.0,4.0,75,0.00,,,0.01,WeatherCatV1.02B3,2013-03-04 22:14:00,
2013-03-04 17:19:00,29.7,22.4,30.20,West,265,3.0,5.0,74,0.00,,,0.01,WeatherCatV1.02B3,2013-03-04 22:19:00,
2013-03-04 17:24:00,29.4,22.2,30.20,SW,220,5.0,6.0,74,0.00,,,0.01,WeatherCatV1.02B3,2013-03-04 22:24:00,
2013-03-04 17:29:00,29.3,22.4,30.20,SW,225,1.0,5.0,75,0.00,,,0.01,WeatherCatV1.02B3,2013-03-04 22:29:00,
2013-03-04 17:34:00,29.3,22.4,30.20,WSW,250,1.0,7.0,75,0.00,,,0.01,WeatherCatV1.02B3,2013-03-04 22:34:00,
2013-03-04 17:39:00,29.2,22.3,30.21,SW,232,3.0,5.0,75,0.00,,,0.01,WeatherCatV1.02B3,2013-03-04 22:39:00,
2013-03-04 17:44:00,29.1,22.2,30.21,SW,229,2.0,5.0,75,0.00,,,0.01,WeatherCatV1.02B3,2013-03-04 22:44:00,
2013-03-04 17:49:00,29.0,22.1,30.21,WSW,238,1.0,3.0,75,0.00,,,0.01,WeatherCatV1.02B3,2013-03-04 22:49:00,
2013-03-04 17:54:00,29.0,22.4,30.21,WSW,250,1.0,3.0,76,0.00,,,0.01,WeatherCatV1.02B3,2013-03-04 22:54:00,
2013-03-04 17:59:00,28.9,22.3,30.21,WSW,237,0.0,3.0,76,0.00,,,0.01,WeatherCatV1.02B3,2013-03-04 22:59:00,
2013-03-04 18:04:00,28.7,22.1,30.21,WSW,246,3.0,5.0,76,0.00,,,0.01,WeatherCatV1.02B3,2013-03-04 23:04:00,
2013-03-04 18:09:00,28.6,22.0,30.21,WNW,286,1.0,3.0,76,0.00,,,0.01,WeatherCatV1.02B3,2013-03-04 23:09:00,
2013-03-04 18:14:00,28.5,22.2,30.21,SW,225,0.0,3.0,77,0.00,,,0.01,WeatherCatV1.02B3,2013-03-04 23:14:00,
2013-03-04 18:19:00,28.4,22.1,30.21,WSW,246,0.0,1.0,77,0.00,,,0.01,WeatherCatV1.02B3,2013-03-04 23:19:00,
2013-03-04 18:24:00,28.4,22.4,30.21,WSW,250,0.0,2.0,78,0.00,,,0.01,WeatherCatV1.02B3,2013-03-04 23:24:00,
2013-03-04 18:29:00,28.3,22.6,30.21,SW,225,2.0,3.0,79,0.00,,,0.01,WeatherCatV1.02B3,2013-03-04 23:29:00,
2013-03-04 18:34:00,28.2,22.5,30.21,WSW,253,2.0,4.0,79,0.00,,,0.01,WeatherCatV1.02B3,2013-03-04 23:34:00,
2013-03-04 18:39:00,28.2,22.5,30.22,WSW,254,0.0,5.0,79,0.00,,,0.01,WeatherCatV1.02B3,2013-03-04 23:39:00,
2013-03-04 18:44:00,28.0,22.3,30.22,SW,223,1.0,3.0,79,0.00,,,0.01,WeatherCatV1.02B3,2013-03-04 23:44:00,
2013-03-04 18:49:00,27.9,22.2,30.21,WSW,238,1.0,3.0,79,0.00,,,0.01,WeatherCatV1.02B3,2013-03-04 23:49:00,
2013-03-04 18:54:00,27.9,22.2,30.21,SW,221,0.0,0.0,79,0.00,,,0.01,WeatherCatV1.02B3,2013-03-04 23:54:00,
2013-03-04 18:59:00,27.8,22.2,30.21,SW,221,0.0,0.0,79,0.00,,,0.01,WeatherCatV1.02B3,2013-03-04 23:59:00,
2013-03-04 19:04:00,27.7,22.1,30.21,SW,221,0.0,0.0,79,0.00,,,0.01,WeatherCatV1.02B3,2013-03-05 00:04:00,
2013-03-04 19:09:00,27.6,22.0,30.21,SW,221,0.0,0.0,79,0.00,,,0.01,WeatherCatV1.02B3,2013-03-05 00:09:00,
2013-03-04 19:14:00,27.5,21.9,30.21,SW,221,0.0,0.0,79,0.00,,,0.01,WeatherCatV1.02B3,2013-03-05 00:14:00,
2013-03-04 19:19:00,27.5,21.9,30.21,SW,221,0.0,0.0,79,0.00,,,0.01,WeatherCatV1.02B3,2013-03-05 00:19:00,
2013-03-04 19:24:00,27.4,21.8,30.21,SW,221,0.0,0.0,79,0.00,,,0.01,WeatherCatV1.02B3,2013-03-05 00:24:00,
2013-03-04 19:29:00,27.2,21.9,30.21,SW,221,0.0,0.0,80,0.00,,,0.01,WeatherCatV1.02B3,2013-03-05 00:29:00,
2013-03-04 19:34:00,27.0,21.4,30.21,SW,221,0.0,0.0,79,0.00,,,0.01,WeatherCatV1.02B3,2013-03-05 00:34:00,
2013-03-04 19:39:00,26.8,21.5,30.21,SW,221,0.0,0.0,80,0.00,,,0.01,WeatherCatV1.02B3,2013-03-05 00:39:00,
2013-03-04 19:44:00,26.5,21.2,30.21,SW,221,0.0,0.0,80,0.00,,,0.01,WeatherCatV1.02B3,2013-03-05 00:44:00,
2013-03-04 19:49:00,26.2,21.2,30.21,SW,221,0.0,0.0,81,0.00,,,0.01,WeatherCatV1.02B3,2013-03-05 00:49:00,
2013-03-04 19:54:00,26.0,21.0,30.21,SW,221,0.0,0.0,81,0.00,,,0.01,WeatherCatV1.02B3,2013-03-05 00:54:00,
2013-03-04 19:59:00,25.8,21.1,30.21,SW,221,0.0,0.0,82,0.00,,,0.01,WeatherCatV1.02B3,2013-03-05 00:59:00,
2013-03-04 20:04:00,25.6,20.9,30.21,SW,221,0.0,0.0,82,0.00,,,0.01,WeatherCatV1.02B3,2013-03-05 01:04:00,
2013-03-04 20:09:00,25.4,21.0,30.21,SW,221,0.0,0.0,83,0.00,,,0.01,WeatherCatV1.02B3,2013-03-05 01:09:00,
2013-03-04 20:14:00,25.3,20.9,30.21,SW,221,0.0,0.0,83,0.00,,,0.01,WeatherCatV1.02B3,2013-03-05 01:14:00,
2013-03-04 20:19:00,25.1,20.7,30.21,SW,221,0.0,0.0,83,0.00,,,0.01,WeatherCatV1.02B3,2013-03-05 01:19:00,
2013-03-04 20:24:00,24.9,20.5,30.21,SW,221,0.0,0.0,83,0.00,,,0.01,WeatherCatV1.02B3,2013-03-05 01:24:00,
2013-03-04 20:29:00,24.7,20.3,30.21,SW,221,0.0,0.0,83,0.00,,,0.01,WeatherCatV1.02B3,2013-03-05 01:29:00,
2013-03-04 20:34:00,24.6,20.2,30.21,SW,221,0.0,0.0,83,0.00,,,0.01,WeatherCatV1.02B3,2013-03-05 01:34:00,
2013-03-04 20:39:00,24.5,20.1,30.21,SW,221,0.0,0.0,83,0.00,,,0.01,WeatherCatV1.02B3,2013-03-05 01:39:00,
2013-03-04 20:44:00,24.4,20.3,30.21,SW,221,0.0,0.0,84,0.00,,,0.01,WeatherCatV1.02B3,2013-03-05 01:44:00,
2013-03-04 20:49:00,24.3,20.2,30.21,SW,221,0.0,0.0,84,0.00,,,0.01,WeatherCatV1.02B3,2013-03-05 01:49:00,
2013-03-04 20:54:00,24.1,20.0,30.21,SW,221,0.0,0.0,84,0.00,,,0.01,WeatherCatV1.02B3,2013-03-05 01:54:00,
2013-03-04 20:59:00,24.0,19.9,30.21,SW,221,0.0,0.0,84,0.00,,,0.01,WeatherCatV1.02B3,2013-03-05 01:59:00,
2013-03-04 21:04:00,23.8,19.7,30.21,SW,221,0.0,0.0,84,0.00,,,0.01,WeatherCatV1.02B3,2013-03-05 02:04:00,
2013-03-04 21:09:00,23.8,20.0,30.21,SW,221,0.0,0.0,85,0.00,,,0.01,WeatherCatV1.02B3,2013-03-05 02:09:00,
2013-03-04 21:14:00,23.8,20.0,30.21,SW,221,0.0,0.0,85,0.00,,,0.01,WeatherCatV1.02B3,2013-03-05 02:14:00,
2013-03-04 21:19:00,23.7,19.9,30.21,SW,221,0.0,0.0,85,0.00,,,0.01,WeatherCatV1.02B3,2013-03-05 02:19:00,
2013-03-04 21:24:00,23.6,19.8,30.21,SW,221,0.0,0.0,85,0.00,,,0.01,WeatherCatV1.02B3,2013-03-05 02:24:00,
2013-03-04 21:29:00,23.5,19.7,30.21,SW,221,0.0,0.0,85,0.00,,,0.01,WeatherCatV1.02B3,2013-03-05 02:29:00,
2013-03-04 21:34:00,23.4,19.6,30.22,SW,221,0.0,0.0,85,0.00,,,0.01,WeatherCatV1.02B3,2013-03-05 02:34:00,
2013-03-04 21:39:00,23.2,19.6,30.21,SW,221,0.0,0.0,86,0.00,,,0.01,WeatherCatV1.02B3,2013-03-05 02:39:00,
2013-03-04 21:44:00,23.1,19.5,30.21,SW,221,0.0,0.0,86,0.00,,,0.01,WeatherCatV1.02B3,2013-03-05 02:44:00,
2013-03-04 21:49:00,23.0,19.5,30.21,SW,221,0.0,0.0,86,0.00,,,0.01,WeatherCatV1.02B3,2013-03-05 02:49:00,
2013-03-04 21:54:00,22.9,19.4,30.21,SW,221,0.0,0.0,86,0.00,,,0.01,WeatherCatV1.02B3,2013-03-05 02:54:00,
2013-03-04 21:59:00,22.8,19.3,30.21,SW,221,0.0,0.0,86,0.00,,,0.01,WeatherCatV1.02B3,2013-03-05 02:59:00,
2013-03-04 22:04:00,22.7,19.2,30.21,SW,221,0.0,0.0,86,0.00,,,0.01,WeatherCatV1.02B3,2013-03-05 03:04:00,
2013-03-04 22:09:00,22.6,19.1,30.21,SW,221,0.0,0.0,86,0.00,,,0.01,WeatherCatV1.02B3,2013-03-05 03:09:00,
2013-03-04 22:14:00,22.6,19.1,30.21,SW,221,0.0,0.0,86,0.00,,,0.01,WeatherCatV1.02B3,2013-03-05 03:14:00,
2013-03-04 22:19:00,22.5,19.0,30.21,SW,221,0.0,0.0,86,0.00,,,0.01,WeatherCatV1.02B3,2013-03-05 03:19:00,
2013-03-04 22:24:00,22.3,18.8,30.21,SW,221,0.0,0.0,86,0.00,,,0.01,WeatherCatV1.02B3,2013-03-05 03:24:00,
2013-03-04 22:29:00,22.3,18.8,30.21,SW,221,0.0,0.0,86,0.00,,,0.01,WeatherCatV1.02B3,2013-03-05 03:29:00,
2013-03-04 22:34:00,22.3,19.0,30.21,SW,221,0.0,0.0,87,0.00,,,0.01,WeatherCatV1.02B3,2013-03-05 03:34:00,
2013-03-04 22:39:00,22.3,19.0,30.21,SW,221,0.0,0.0,87,0.00,,,0.01,WeatherCatV1.02B3,2013-03-05 03:39:00,
2013-03-04 22:44:00,22.2,18.9,30.21,SW,221,0.0,0.0,87,0.00,,,0.01,WeatherCatV1.02B3,2013-03-05 03:44:00,
2013-03-04 22:49:00,22.2,18.9,30.21,SW,221,0.0,0.0,87,0.00,,,0.01,WeatherCatV1.02B3,2013-03-05 03:49:00,
2013-03-04 22:54:00,22.1,18.8,30.21,SW,221,0.0,0.0,87,0.00,,,0.01,WeatherCatV1.02B3,2013-03-05 03:54:00,
2013-03-04 22:59:00,21.9,18.6,30.21,SW,221,0.0,0.0,87,0.00,,,0.01,WeatherCatV1.02B3,2013-03-05 03:59:00,
2013-03-04 23:04:00,21.9,18.6,30.22,SW,221,0.0,0.0,87,0.00,,,0.01,WeatherCatV1.02B3,2013-03-05 04:04:00,
2013-03-04 23:09:00,21.8,18.5,30.22,SW,221,0.0,0.0,87,0.00,,,0.01,WeatherCatV1.02B3,2013-03-05 04:09:00,
2013-03-04 23:14:00,21.7,18.4,30.22,SW,221,0.0,0.0,87,0.00,,,0.01,WeatherCatV1.02B3,2013-03-05 04:14:00,
2013-03-04 23:19:00,21.7,18.4,30.22,SW,221,0.0,0.0,87,0.00,,,0.01,WeatherCatV1.02B3,2013-03-05 04:19:00,
2013-03-04 23:24:00,21.6,18.3,30.22,SW,221,0.0,0.0,87,0.00,,,0.01,WeatherCatV1.02B3,2013-03-05 04:24:00,
2013-03-04 23:29:00,21.5,18.2,30.21,SW,221,0.0,0.0,87,0.00,,,0.01,WeatherCatV1.02B3,2013-03-05 04:29:00,
2013-03-04 23:34:00,21.5,18.2,30.21,SW,221,0.0,0.0,87,0.00,,,0.01,WeatherCatV1.02B3,2013-03-05 04:34:00,
2013-03-04 23:39:00,21.5,18.2,30.22,SW,221,0.0,0.0,87,0.00,,,0.01,WeatherCatV1.02B3,2013-03-05 04:39:00,
2013-03-04 23:44:00,21.5,18.5,30.22,SW,221,0.0,0.0,88,0.00,,,0.01,WeatherCatV1.02B3,2013-03-05 04:44:00,
2013-03-04 23:49:00,21.4,18.4,30.22,SW,221,0.0,0.0,88,0.00,,,0.01,WeatherCatV1.02B3,2013-03-05 04:49:00,
2013-03-04 23:54:00,21.6,18.6,30.22,SW,221,0.0,0.0,88,0.00,,,0.01,WeatherCatV1.02B3,2013-03-05 04:54:00,
2013-03-04 23:59:00,21.7,18.7,30.22,SW,221,0.0,0.0,88,0.00,,,0.01,WeatherCatV1.02B3,2013-03-05 04:59:00,